Location: Enid
(36.3960°N, 97.8780°W)
Time: 21:16:45
(UTC-05:00)

Hubble Space Telescope - Visible Passes

Search period start: 01 August 2015 00:00
Search period end: 11 August 2015 00:00
Orbit: 541 x 545 km, 28.5° (Epoch: 31 July)

Date Brightness Start Highest point End Pass type
(mag) Time Alt. Az. Time Alt. Az. Time Alt. Az.
02 Aug 2.8 21:32:40 10° S 21:34:11 12° SSE 21:34:32 12° SSE visible
03 Aug 2.6 21:22:57 10° SSW 21:25:12 14° SSE 21:26:38 12° SE visible
04 Aug 2.5 21:13:32 10° SSW 21:16:13 17° SSE 21:18:35 11° SE visible
04 Aug 3.2 22:53:30 10° SW 22:54:02 13° SW 22:54:02 13° SW visible
05 Aug 2.4 21:04:15 10° SSW 21:07:15 19° SSE 21:10:17 10° ESE visible
05 Aug 2.9 22:44:32 10° WSW 22:45:50 17° SW 22:45:50 17° SW visible
06 Aug 2.5 22:35:36 10° WSW 22:37:31 21° SW 22:37:31 21° SW visible
07 Aug 2.3 22:26:41 10° WSW 22:29:06 23° SSW 22:29:06 23° SSW visible
08 Aug 2.2 22:17:48 10° WSW 22:20:38 24° SSW 22:20:38 24° SSW visible
09 Aug 2.3 22:08:58 10° WSW 22:12:08 22° SSW 22:12:08 22° SSW visible
10 Aug 2.4 22:00:11 10° WSW 22:03:17 20° SSW 22:03:37 20° S visible
